Location: Beekmeers
(50.8953°N, 3.6968°E)
Time: 09:51:35
(UTC+00:00)

Cosmos 2251 Rocket - Pass Details

Date: 23 May 2024
Orbit: 762 x 790 km, 74.0° (Epoch: 14 June)

Event Time Altitude Azimuth Distance (km) Brightness Sun altitude
Exits shadow 00:44:26 25° 225° (SW) 1,505 4.5 -17.2°
Maximum altitude 00:47:25 61° 298° (WNW) 872 3.8 -17.0°
Drops below altitude 10° 00:52:40 10° 19° (NNE) 2,332 7.3 -16.8°
Sets 00:55:06 0° 23° (NNE) 3,268 8.5 -16.7°
